• In Romania
  • List of Countries
  • For 7 days
  • Water Temperature
  • Satellite Maps
  • Weather Map
  • Weather Widgets
  • user-avatar
    Login

    Hourly Weather Zhlobin

    Today, 21 October, Saturday

    Time Temperature Precipitation Wind Pressure Humidity
    00:00 +4°C° 0 mm 2 mps 754 mmHg 79%
    01:00 +4°C° 0 mm 2 mps 754 mmHg 80%
    02:00 +4°C° 0 mm 2 mps 754 mmHg 80%
    03:00 +4°C° 0 mm 2 mps 754 mmHg 80%
    04:00 +4°C° 0 mm 2 mps 753 mmHg 79%
    05:00 +4°C° 0 mm 2 mps 753 mmHg 78%
    06:00 +4°C° 0 mm 2 mps 753 mmHg 77%
    07:00 +5°C° 0 mm 2 mps 753 mmHg 76%
    08:00 +5°C° 0 mm 2 mps 753 mmHg 74%
    09:00 +6°C° 0.1 mm 2 mps 753 mmHg 72%
    10:00 +6°C° 0.1 mm 2 mps 752 mmHg 71%
    11:00 +7°C° 0.1 mm 2 mps 752 mmHg 69%
    12:00 +7°C° 0.4 mm 2 mps 752 mmHg 71%
    13:00 +7°C° 0.4 mm 2 mps 752 mmHg 74%
    14:00 +6°C° 0.4 mm 2 mps 751 mmHg 76%
    15:00 +5°C° 0.7 mm 3 mps 751 mmHg 78%
    16:00 +5°C° 0.7 mm 3 mps 750 mmHg 81%
    17:00 +4°C° 0.7 mm 3 mps 750 mmHg 84%
    18:00 +4°C° 0.9 mm 3 mps 750 mmHg 85%
    19:00 +4°C° 0.9 mm 3 mps 750 mmHg 85%
    20:00 +4°C° 0.9 mm 3 mps 750 mmHg 86%
    21:00 +3°C° 0.4 mm 3 mps 750 mmHg 87%
    22:00 +3°C° 0.4 mm 3 mps 750 mmHg 88%
    23:00 +3°C° 0.4 mm 3 mps 751 mmHg 89%

    Tomorrow, 22 October, Sunday

    Time Temperature Precipitation Wind Pressure Humidity
    00:00 +2°C° 0 mm 3 mps 751 mmHg 89%
    01:00 +2°C° 0 mm 3 mps 751 mmHg 90%
    02:00 +1°C° 0 mm 3 mps 751 mmHg 91%
    03:00 +1°C° 0 mm 3 mps 751 mmHg 91%
    04:00 +1°C° 0 mm 2 mps 751 mmHg 91%
    05:00 +1°C° 0 mm 2 mps 752 mmHg 91%
    06:00 +1°C° 0 mm 2 mps 752 mmHg 89%
    07:00 +1°C° 0 mm 2 mps 752 mmHg 87%
    08:00 +1°C° 0 mm 2 mps 752 mmHg 85%
    09:00 +3°C° 0 mm 2 mps 753 mmHg 79%
    10:00 +4°C° 0 mm 2 mps 753 mmHg 73%
    11:00 +6°C° 0 mm 2 mps 753 mmHg 67%
    12:00 +6°C° 0 mm 2 mps 753 mmHg 64%
    13:00 +6°C° 0 mm 2 mps 753 mmHg 60%
    14:00 +8°C° 0 mm 1 mps 753 mmHg 57%
    15:00 +7°C° 0 mm 1 mps 753 mmHg 62%
    16:00 +5°C° 0 mm 1 mps 752 mmHg 67%
    17:00 +4°C° 0 mm 1 mps 752 mmHg 72%
    18:00 +4°C° 0 mm 1 mps 753 mmHg 75%
    19:00 +3°C° 0 mm 1 mps 753 mmHg 77%
    20:00 +3°C° 0 mm 1 mps 753 mmHg 80%
    21:00 +2°C° 0 mm 1 mps 753 mmHg 82%
    22:00 +2°C° 0 mm 1 mps 753 mmHg 83%
    23:00 +2°C° 0 mm 1 mps 753 mmHg 85%

    Day after tomorrow, 23 October, Monday

    Time Temperature Precipitation Wind Pressure Humidity
    00:00 +1°C° 0 mm 1 mps 753 mmHg 86%
    01:00 +1°C° 0 mm 1 mps 753 mmHg 87%
    02:00 +1°C° 0 mm 1 mps 753 mmHg 88%
    03:00 +1°C° 0 mm 1 mps 753 mmHg 88%
    04:00 +1°C° 0 mm 1 mps 753 mmHg 88%
    05:00 +1°C° 0 mm 1 mps 753 mmHg 88%
    06:00 +1°C° 0 mm 1 mps 753 mmHg 86%
    07:00 +2°C° 0 mm 1 mps 753 mmHg 84%
    08:00 +2°C° 0 mm 1 mps 753 mmHg 82%
    09:00 +3°C° 0 mm 2 mps 753 mmHg 76%
    10:00 +4°C° 0 mm 2 mps 753 mmHg 70%
    11:00 +4°C° 0 mm 3 mps 753 mmHg 64%
    12:00 +5°C° 0 mm 3 mps 753 mmHg 61%
    13:00 +5°C° 0 mm 3 mps 753 mmHg 59%
    14:00 +7°C° 0 mm 3 mps 753 mmHg 57%
    15:00 +4°C° 0 mm 3 mps 753 mmHg 62%
    16:00 +4°C° 0 mm 2 mps 754 mmHg 67%
    17:00 +3°C° 0 mm 2 mps 754 mmHg 72%
    18:00 +2°C° 0 mm 2 mps 754 mmHg 73%
    19:00 +1°C° 0 mm 3 mps 754 mmHg 75%
    20:00 0°C° 0 mm 3 mps 755 mmHg 77%
    21:00 0°C° 0 mm 3 mps 755 mmHg 77%
    22:00 0°C° 0 mm 3 mps 755 mmHg 77%
    23:00 -1°C° 0 mm 3 mps 756 mmHg 77%

    24 October, Tuesday

    Time Temperature Precipitation Wind Pressure Humidity
    00:00 -1°C° 0 mm 3 mps 756 mmHg 77%
    01:00 -1°C° 0 mm 3 mps 756 mmHg 77%
    02:00 -1°C° 0 mm 3 mps 757 mmHg 77%
    03:00 -1°C° 0 mm 3 mps 757 mmHg 77%
    04:00 -2°C° 0 mm 3 mps 757 mmHg 76%
    05:00 -2°C° 0 mm 3 mps 758 mmHg 76%
    06:00 -1°C° 0 mm 3 mps 758 mmHg 74%
    07:00 -1°C° 0 mm 3 mps 759 mmHg 71%
    08:00 -2°C° 0 mm 4 mps 759 mmHg 69%
    09:00 0°C° 0 mm 4 mps 759 mmHg 64%
    10:00 +1°C° 0 mm 4 mps 760 mmHg 60%
    11:00 +3°C° 0 mm 4 mps 760 mmHg 55%
    12:00 +3°C° 0 mm 4 mps 760 mmHg 54%
    13:00 +3°C° 0 mm 4 mps 760 mmHg 54%
    14:00 +4°C° 0 mm 4 mps 760 mmHg 53%
    15:00 +3°C° 0 mm 3 mps 761 mmHg 56%
    16:00 +2°C° 0 mm 3 mps 761 mmHg 60%
    17:00 +1°C° 0 mm 3 mps 761 mmHg 64%
    18:00 +1°C° 0 mm 3 mps 761 mmHg 64%
    19:00 +1°C° 0 mm 3 mps 761 mmHg 65%
    20:00 +1°C° 0 mm 3 mps 762 mmHg 66%
    21:00 +1°C° 0 mm 3 mps 762 mmHg 67%
    22:00 0°C° 0 mm 3 mps 762 mmHg 67%
    23:00 0°C° 0 mm 3 mps 762 mmHg 68%

    25 October, Wednesday

    Time Temperature Precipitation Wind Pressure Humidity
    00:00 0°C° 0 mm 3 mps 763 mmHg 68%
    01:00 0°C° 0 mm 3 mps 763 mmHg 68%
    02:00 0°C° 0 mm 3 mps 763 mmHg 68%
    03:00 0°C° 0 mm 3 mps 763 mmHg 68%
    04:00 0°C° 0 mm 3 mps 763 mmHg 68%
    05:00 -1°C° 0 mm 3 mps 763 mmHg 67%
    06:00 -1°C° 0 mm 3 mps 763 mmHg 67%
    07:00 0°C° 0 mm 3 mps 763 mmHg 66%
    08:00 0°C° 0 mm 3 mps 763 mmHg 65%
    09:00 0°C° 0 mm 3 mps 763 mmHg 62%
    10:00 +1°C° 0 mm 3 mps 764 mmHg 59%
    11:00 +2°C° 0 mm 3 mps 764 mmHg 56%
    12:00 +1°C° 0 mm 4 mps 763 mmHg 54%
    13:00 +3°C° 0 mm 4 mps 763 mmHg 53%
    14:00 +3°C° 0 mm 4 mps 763 mmHg 51%
    15:00 +2°C° 0 mm 3 mps 763 mmHg 54%
    16:00 +2°C° 0 mm 3 mps 763 mmHg 58%
    17:00 +1°C° 0 mm 3 mps 763 mmHg 61%
    18:00 0°C° 0 mm 3 mps 763 mmHg 64%
    19:00 0°C° 0 mm 3 mps 763 mmHg 67%
    20:00 -1°C° 0 mm 3 mps 763 mmHg 70%
    21:00 -1°C° 0 mm 3 mps 763 mmHg 72%
    22:00 -2°C° 0 mm 3 mps 763 mmHg 74%
    23:00 -2°C° 0 mm 3 mps 763 mmHg 76%

    26 October, Thursday

    Time Temperature Precipitation Wind Pressure Humidity
    00:00 -2°C° 0 mm 3 mps 763 mmHg 77%
    01:00 -2°C° 0 mm 3 mps 762 mmHg 77%
    02:00 -4°C° 0 mm 3 mps 762 mmHg 78%
    03:00 -4°C° 0 mm 3 mps 762 mmHg 79%
    04:00 -4°C° 0 mm 3 mps 762 mmHg 79%
    05:00 -4°C° 0 mm 3 mps 762 mmHg 80%
    06:00 -4°C° 0 mm 3 mps 761 mmHg 78%
    07:00 -2°C° 0 mm 3 mps 761 mmHg 77%
    08:00 -2°C° 0 mm 3 mps 761 mmHg 75%
    09:00 0°C° 0 mm 3 mps 761 mmHg 69%
    10:00 +1°C° 0 mm 3 mps 761 mmHg 64%
    11:00 +2°C° 0 mm 3 mps 760 mmHg 58%
    12:00 +3°C° 0 mm 3 mps 760 mmHg 56%
    13:00 +3°C° 0 mm 3 mps 759 mmHg 54%
    14:00 +4°C° 0 mm 3 mps 759 mmHg 52%
    15:00 +2°C° 0 mm 3 mps 759 mmHg 58%
    16:00 +1°C° 0 mm 3 mps 758 mmHg 64%
    17:00 +1°C° 0 mm 2 mps 758 mmHg 70%
    18:00 +1°C° 0 mm 2 mps 758 mmHg 72%
    19:00 -1°C° 0 mm 2 mps 758 mmHg 73%
    20:00 -1°C° 0 mm 2 mps 758 mmHg 75%
    21:00 -1°C° 0 mm 2 mps 757 mmHg 78%
    22:00 -2°C° 0 mm 2 mps 757 mmHg 81%
    23:00 -2°C° 0 mm 2 mps 757 mmHg 85%
    Show more